User: anonymous   Login
Location: Newark
(52.9300°N, 3.3400°W)
Time: 06:34:05
(UTC+00:00)
Language:

NANOSAT C BR1 - Orbit

View from above orbital plane
View from above orbital plane
View from above satellite
View from above satellite

Ground track
Ground track

The orbit data is extracted from the following two-line orbital elements,

1 40024U 14033Q   21127.81605655  .00000385  00000-0  45435-4 0  9991
2 40024  97.9498  62.8006 0010998 309.1645  50.8595 14.90405866373542
Epoch (UTC): 07 May 2021 19:35:07
Eccentricity: 0.0010998
inclination: 97.9498°
perigee height: 589 km
apogee height: 604 km
right ascension of ascending node: 62.8006°
argument of perigee: 309.1645°
revolutions per day: 14.90405866
mean anomaly at epoch: 50.8595°
orbit number at epoch: 37354

The dashed part of the orbit path shows where the satellite is in the earth's shadow,  

DLR